Location: Standeford and Andreas Observatories
(44.1397°N, 93.9969°W)
Time: 13:51:16
(UTC-05:00)

Cosmos 1500 Rocket - Visible Passes

Search period start: 30 July 2016 00:00
Search period end: 09 August 2016 00:00
Orbit: 604 x 631 km, 82.5° (Epoch: 29 July)

Date Brightness Start Highest point End Pass type
(mag) Time Alt. Az. Time Alt. Az. Time Alt. Az.
30 Jul 6.5 03:03:58 10° NE 03:05:35 12° ENE 03:07:10 10° E visible
30 Jul 3.5 04:39:34 10° NNW 04:43:58 71° W 04:48:17 10° S visible
31 Jul 6.0 03:19:34 10° NNE 03:22:51 20° ENE 03:26:05 10° ESE visible
31 Jul 4.1 04:56:46 10° NNW 05:00:51 38° W 05:04:51 10° SSW visible
01 Aug 5.0 03:35:59 10° N 03:40:01 34° ENE 03:43:59 10° SE visible
01 Aug 4.9 05:14:18 10° NW 05:17:37 21° W 05:20:54 10° SW visible
02 Aug 3.9 03:52:42 10° N 03:57:04 63° E 04:00:17 17° SSE visible
02 Aug 5.5 05:32:39 10° WNW 05:34:17 12° W 05:35:55 10° WSW visible
03 Aug 6.4 02:34:00 10° NE 02:35:39 12° ENE 02:37:17 10° E visible
03 Aug 3.5 04:09:40 10° NNW 04:14:02 70° W 04:16:26 25° S visible
04 Aug 5.8 02:49:38 10° NNE 02:52:55 20° ENE 02:55:34 13° ESE visible
04 Aug 4.1 04:26:52 10° NNW 04:30:54 37° W 04:32:39 26° SW visible
05 Aug 4.9 03:06:03 10° N 03:10:05 35° ENE 03:11:50 25° ESE visible
05 Aug 4.9 04:44:24 10° NW 04:47:40 21° W 04:48:55 18° WSW visible
06 Aug 3.8 03:22:46 10° N 03:27:08 64° E 03:28:09 48° SE visible
06 Aug 5.5 05:02:49 10° WNW 05:04:21 12° W 05:05:15 11° W visible
07 Aug 6.3 02:04:03 10° NE 02:05:43 12° ENE 02:07:24 10° E visible
07 Aug 3.4 03:39:44 10° NNW 03:44:05 68° W 03:44:31 63° SW visible
08 Aug 5.6 02:19:41 10° NNE 02:22:59 20° ENE 02:23:49 19° E visible
08 Aug 4.2 03:56:57 10° NNW 04:00:55 36° W 04:00:55 36° W visible
